カタログに戻る

STARLINK-37797

運用中通信VLEO
NORAD 100052·PAYLOAD·🇺🇸 United States

打ち上げ Jul 14, 2026 から Cape Canaveral Space Force Station

Loading…

次のパス (今後24時間)

TLE

最新Source: Space-Track

元期: Sep 14, 2026, 09:23 UTC

1 A0052U 26161AA  26257.39122533  .00020200  00000-0  60730-3 0  9996
2 A0052  53.1603  26.1844 0001544  80.0764 280.0412 15.34404557  9678

AllMySatでSTARLINK-37797をリアルタイム追跡

Download on the App Store